World > North America > United States > Mississippi

Hourly Wenasoga, MS Regional Weather

Feedback E-mail the Weather

Quick WX

Wenasoga, MS Weather Maps

°F °C°F °C
Wenasoga Weather Map
UTC Time: 6/29/2022, 04:24
Your Time:

Wenasoga, MS Regional Weather

Expires:202206290500;;365594
ASUS44 KJAN 290410
RWRMS 

MISSISSIPPI HOURLY WEATHER ROUNDUP
NATIONAL WEATHER SERVICE JACKSON MS
1100 PM CDT TUE JUN 28 2022

NOTE: "FAIR: INDICATES FEW OR NO CLOUDS BELOW 12,000 FEET WITH NO
SIGNIFICANT WEATHER AND/OR OBSTRUCTIONS TO VISIBILITY.


MSZ003>006-009-014>017-022>024-029>033-037>039-290500-
NORTHEAST MISSISSIPPI
  
CITY           SKY/WX    TMP DP  RH WIND       PRES   REMARKS
ABERDEEN       FAIR      70  66  88 N5        30.13S                  
COLUMBUS AFB   PTCLDY    72  65  78 CALM      30.09R                  
CORINTH        CLEAR     70  57  64 N3        30.16R                  
GOLDN TRIANGLE MOCLDY    76  67  73 NE3       30.12R                  
TUPELO         PTCLDY    75  58  55 N9        30.14R                  
$$


SKY/WX - Weather  TMP - Temperature  DP - Dew Point  RH - Humidity
WIND - Wind Direction/Speed PRES - Barometric Pressure VSB - Visibility
WCI - Wind Chill Index E13G22 Wind - East Wind 13 mph/Gusts of 22 mph

Trending Headlines

Wenasoga Radar Loop



Wenasoga Quick Facts


National Two Day Weather Forecast


E-mail the Wenasoga Weather Forecast

Voice your opinion or tell us about page issues...